H1 CPF 2 NER 2024 5 17 9 138 01 glonass127 H2 1106403 9127 37869 2024 5 17 0 0 0 2024 5 20 23 45 0 900 1 1 0 0 0 1 H9 10 0 60447 0.00000 0 -5903194.386 9242091.784 -22964667.632 10 0 60447 900.00000 0 -8034451.312 7344617.649 -23005360.912 10 0 60447 1800.00000 0 -10280874.525 5622678.607 -22596285.269 10 0 60447 2700.00000 0 -12582683.643 4113822.811 -21745594.696 10 0 60447 3600.00000 0 -14875128.668 2844147.294 -20470112.161 10 0 60447 4500.00000 0 -17091054.842 1827410.974 -18794980.388 10 0 60447 5400.00000 0 -19163580.789 1064684.971 -16753146.016 10 0 60447 6300.00000 0 -21028776.123 544552.247 -14384689.063 10 0 60447 7200.00000 0 -22628225.203 243844.859 -11736012.899 10 0 60447 8100.00000 0 -23911369.139 128883.990 -8858912.665 10 0 60447 9000.00000 0 -24837528.304 157166.643 -5809542.437 10 0 60447 9900.00000 0 -25377521.728 279424.199 -2647303.221 10 0 60447 10800.00000 0 -25514817.530 441962.818 566324.967 10 0 60447 11700.00000 0 -25246168.768 589184.505 3768983.050 10 0 60447 12600.00000 0 -24581711.036 666180.948 6898640.910 10 0 60447 13500.00000 0 -23544520.807 621290.157 9894790.073 10 0 60447 14400.00000 0 -22169655.815 408508.503 12699598.635 10 0 60447 15300.00000 0 -20502719.881 -10342.266 15259007.366 10 0 60447 16200.00000 0 -18598013.616 -663782.578 17523747.718 10 0 60447 17100.00000 0 -16516348.662 -1569252.238 19450264.419 10 0 60447 18000.00000 0 -14322616.040 -2732155.208 21001527.405 10 0 60447 18900.00000 0 -12083208.350 -4145410.709 22147720.099 10 0 60447 19800.00000 0 -9863400.666 -5789528.815 22866793.249 10 0 60447 20700.00000 0 -7724796.084 -7633207.715 23144875.670 10 0 60447 21600.00000 0 -5722938.873 -9634429.050 22976535.498 10 0 60447 22500.00000 0 -3905191.232 -11742007.905 22364887.616 10 0 60447 23400.00000 0 -2308959.219 -13897535.900 21321545.123 10 0 60447 24300.00000 0 -960339.554 -16037639.966 19866414.837 10 0 60447 25200.00000 0 126757.555 -18096466.403 18027339.125 10 0 60447 26100.00000 0 950973.225 -20008290.132 15839588.646 10 0 60447 27000.00000 0 1523336.506 -21710143.231 13345213.119 10 0 60447 27900.00000 0 1866578.222 -23144355.046 10592259.711 10 0 60447 28800.00000 0 2013948.983 -24260898.638 7633871.386 10 0 60447 29700.00000 0 2007589.002 -25019445.164 4527280.123 10 0 60447 30600.00000 0 1896516.493 -25391038.783 1332712.544 10 0 60447 31500.00000 0 1734318.152 -25359319.525 -1887772.078 10 0 60447 32400.00000 0 1576638.653 -24921239.844 -5071489.346 10 0 60447 33300.00000 0 1478575.667 -24087241.445 -8156359.028 10 0 60447 34200.00000 0 1492091.975 -22880881.757 -11082131.060 10 0 60447 35100.00000 0 1663556.444 -21337922.934 -13791582.687 10 0 60447 36000.00000 0 2031520.995 -19504919.601 -16231661.249 10 0 60447 36900.00000 0 2624831.086 -17437363.487 -18354547.849 10 0 60447 37800.00000 0 3461153.271 -15197462.683 -20118618.699 10 0 60447 38700.00000 0 4545985.541 -12851649.394 -21489283.021 10 0 60447 39600.00000 0 5872195.200 -10467922.221 -22439679.120 10 0 60447 40500.00000 0 7420106.095 -8113136.277 -22951213.444 10 0 60447 41400.00000 0 9158132.938 -5850356.735 -23013931.069 10 0 60447 42300.00000 0 11043936.519 -3736388.597 -22626709.859 10 0 60447 43200.00000 0 13026050.890 -1819587.488 -21797274.611 10 0 60447 44100.00000 0 15045913.021 -138043.800 -20542031.534 10 0 60447 45000.00000 0 17040208.044 1281783.993 -18885727.417 10 0 60447 45900.00000 0 18943429.743 2425930.890 -16860941.686 10 0 60447 46800.00000 0 20690546.940 3293247.906 -14507423.102 10 0 60447 47700.00000 0 22219662.304 3895175.156 -11871286.165 10 0 60447 48600.00000 0 23474550.959 4254978.722 -9004085.040 10 0 60447 49500.00000 0 24406972.097 4406487.467 -5961785.210 10 0 60447 50400.00000 0 24978657.064 4392386.943 -2803654.864 10 0 60447 51300.00000 0 25162891.844 4262146.003 408900.772 10 0 60447 52200.00000 0 24945629.588 4069666.536 3613538.295 10 0 60447 53100.00000 0 24326089.087 3870757.628 6748184.223 10 0 60447 54000.00000 0 23316816.852 3720541.830 9752228.892 10 0 60447 54900.00000 0 21943212.948 3670903.054 12567683.693 10 0 60447 55800.00000 0 20242542.711 3768082.878 15140280.498 10 0 60447 56700.00000 0 18262477.326 4050524.944 17420493.910 10 0 60447 57600.00000 0 16059224.918 4547056.222 19364468.937 10 0 60447 58500.00000 0 13695329.864 5275479.483 20934838.715 10 0 60447 59400.00000 0 11237230.684 6241634.271 22101419.165 10 0 60447 60300.00000 0 8752675.912 7438964.523 22841769.696 10 0 60447 61200.00000 0 6308102.467 8848610.534 23141611.191 10 0 60447 62100.00000 0 3966082.125 10440022.010 22995094.744 10 0 60447 63000.00000 0 1782938.664 12172068.206 22404916.735 10 0 60447 63900.00000 0 -193368.414 13994601.268 21382277.984 10 0 60447 64800.00000 0 -1925008.325 15850410.707 19946686.881 10 0 60447 65700.00000 0 -3385619.989 17677490.990 18125608.652 10 0 60447 66600.00000 0 -4561174.596 19411531.082 15953965.253 10 0 60447 67500.00000 0 -5450323.712 20988525.136 13473492.847 10 0 60447 68400.00000 0 -6064217.474 22347397.607 10731966.365 10 0 60447 69300.00000 0 -6425798.916 23432534.362 7782303.320 10 0 60447 70200.00000 0 -6568602.146 24196114.063 4681561.702 10 0 60447 71100.00000 0 -6535102.972 24600141.131 1489849.347 10 0 60447 72000.00000 0 -6374689.829 24618092.997 -1730835.336 10 0 60447 72900.00000 0 -6141339.617 24236109.598 -4917809.287 10 0 60447 73800.00000 0 -5891096.448 23453671.763 -8008933.641 10 0 60447 74700.00000 0 -5679460.654 22283736.425 -10943840.516 10 0 60447 75600.00000 0 -5558800.254 20752319.687 -13665132.156 10 0 60447 76500.00000 0 -5575896.892 18897542.452 -16119526.945 10 0 60447 77400.00000 0 -5769733.237 16768176.812 -18258927.465 10 0 60447 78300.00000 0 -6169618.800 14421753.174 -20041387.305 10 0 60447 79200.00000 0 -6793736.861 11922307.532 -21431955.403 10 0 60447 80100.00000 0 -7648176.913 9337864.145 -22403379.368 10 0 60447 81000.00000 0 -8726495.974 6737760.599 -22936652.458 10 0 60447 81900.00000 0 -10009828.958 4189929.061 -23021392.443 10 0 60447 82800.00000 0 -11467544.239 1758249.446 -22656044.434 10 0 60447 83700.00000 0 -13058416.700 -499913.193 -21847903.801 10 0 60447 84600.00000 0 -14732267.986 -2535883.001 -20612959.311 10 0 60447 85500.00000 0 -16432003.401 -4311468.200 -18975560.687 10 0 60448 0.00000 0 -18095957.675 -5800302.003 -16967918.784 10 0 60448 900.00000 0 -19660449.789 -6988675.912 -14629448.827 10 0 60448 1800.00000 0 -21062435.290 -7875831.210 -12005974.408 10 0 60448 2700.00000 0 -22242146.026 -8473702.508 -9148806.310 10 0 60448 3600.00000 0 -23145603.240 -8806126.018 -6113718.886 10 0 60448 4500.00000 0 -23726899.125 -8907550.830 -2959844.889 10 0 60448 5400.00000 0 -23950151.500 -8821311.270 251487.903 10 0 60448 6300.00000 0 -23791050.937 -8597536.634 3457954.442 10 0 60448 7200.00000 0 -23237937.423 -8290789.117 6597440.565 10 0 60448 8100.00000 0 -22292363.803 -7957531.317 9609238.087 10 0 60448 9000.00000 0 -20969124.939 -7653530.768 12435204.298 10 0 60448 9900.00000 0 -19295753.629 -7431310.587 15020864.654 10 0 60448 10800.00000 0 -17311506.177 -7337752.374 17316439.221 10 0 60448 11700.00000 0 -15065880.964 -7411950.376 19277775.341 10 0 60448 12600.00000 0 -12616731.855 -7683404.942 20867171.077 10 0 60448 13500.00000 0 -10028054.072 -8170628.912 22054076.217 10 0 60448 14400.00000 0 -7367532.676 -8880223.642 22815659.812 10 0 60448 15300.00000 0 -4703952.810 -9806462.227 23137235.390 10 0 60448 16200.00000 0 -2104575.924 -10931397.140 23012537.220 10 0 60448 17100.00000 0 367412.683 -12225488.612 22443843.058 10 0 60448 18000.00000 0 2655282.493 -13648729.203 21441941.022 10 0 60448 18900.00000 0 4710866.844 -15152220.196 20025940.389 10 0 60448 19800.00000 0 6496317.171 -16680137.103 18222928.308 10 0 60448 20700.00000 0 7985430.819 -18172005.505 16067476.856 10 0 60448 21600.00000 0 9164497.608 -19565195.276 13601007.225 10 0 60448 22500.00000 0 10032629.353 -20797531.525 10871020.437 10 0 60448 23400.00000 0 10601557.310 -21809914.713 7930206.645 10 0 60448 24300.00000 0 10894904.289 -22548840.882 4835447.717 10 0 60448 25200.00000 0 10946960.033 -22968715.796 1646730.379 10 0 60448 26100.00000 0 10801009.536 -23033864.249 -1574010.285 10 0 60448 27000.00000 0 10507283.323 -22720147.475 -4764095.108 10 0 60448 27900.00000 0 10120615.540 -22016117.361 -7861329.210 10 0 60448 28800.00000 0 9697908.898 -20923655.222 -10805229.525 10 0 60448 29700.00000 0 9295514.812 -19458064.564 -13538225.927 10 0 60448 30600.00000 0 8966641.444 -17647610.603 -16006810.425 10 0 60448 31500.00000 0 8758902.000 -15532523.223 -18162609.552 10 0 60448 32400.00000 0 8712110.012 -13163503.456 -19963356.589 10 0 60448 33300.00000 0 8856418.075 -10599795.335 -21373742.254 10 0 60448 34200.00000 0 9210881.704 -7906904.091 -22366125.228 10 0 60448 35100.00000 0 9782511.531 -5154057.222 -22921086.977 10 0 60448 36000.00000 0 10565855.705 -2411516.166 -23027818.978 10 0 60448 36900.00000 0 11543131.119 252147.145 -22684334.202 10 0 60448 37800.00000 0 12684898.038 2772693.316 -21897498.804 10 0 60448 38700.00000 0 13951248.949 5092666.283 -20682883.943 10 0 60448 39600.00000 0 15293460.062 7163548.713 -19064441.742 10 0 60448 40500.00000 0 16656033.911 8947532.057 -17074013.180 10 0 60448 41400.00000 0 17979044.773 10418828.371 -14750679.384 10 0 60448 42300.00000 0 19200685.855 11564471.040 -12139971.030 10 0 60448 43200.00000 0 20259909.043 12384573.874 -9292953.458 10 0 60448 44100.00000 0 21099044.605 12892041.367 -6265207.456 10 0 60448 45000.00000 0 21666289.801 13111746.328 -3115727.589 10 0 60448 45900.00000 0 21917961.717 13079213.604 94238.807 10 0 60448 46800.00000 0 21820420.381 12838869.090 3302388.184 10 0 60448 47700.00000 0 21351582.825 12441930.999 6446568.893 10 0 60448 48600.00000 0 20501966.547 11944034.537 9465977.370 10 0 60448 49500.00000 0 19275220.834 11402691.390 12302319.819 10 0 60448 50400.00000 0 17688125.916 10874691.215 14900918.114 10 0 60448 51300.00000 0 15770061.830 10413553.751 17211740.384 10 0 60448 52200.00000 0 13561970.375 10067137.079 19190338.647 10 0 60448 53100.00000 0 11114853.849 9875500.359 20798677.969 10 0 60448 54000.00000 0 8487872.459 9869108.384 22005843.766 10 0 60448 54900.00000 0 5746117.945 10067450.954 22788616.152 10 0 60448 55800.00000 0 2958153.425 10478133.160 23131902.352 10 0 60448 56700.00000 0 193418.425 11096473.621 23029020.418 10 0 60448 57600.00000 0 -2480396.836 11905627.402 22481829.619 10 0 60448 58500.00000 0 -4999902.606 12877229.404 21500705.012 10 0 60448 59400.00000 0 -7308383.678 13972533.165 20104355.868 10 0 60448 60300.00000 0 -9357900.629 15144000.067 18319489.882 10 0 60448 61200.00000 0 -11111032.756 16337275.504 16180327.415 10 0 60448 62100.00000 0 -12542191.168 17493472.428 13727972.470 10 0 60448 63000.00000 0 -13638447.260 18551669.468 11009649.661 10 0 60448 63900.00000 0 -14399841.048 19451521.047 8077819.077 10 0 60448 64800.00000 0 -14839154.874 20135871.186 4989183.638 10 0 60448 65700.00000 0 -14981160.000 20553261.331 1803606.071 10 0 60448 66600.00000 0 -14861365.684 20660225.681 -1417044.778 10 0 60448 67500.00000 0 -14524321.645 20423275.251 -4610096.524 10 0 60448 68400.00000 0 -14021544.251 19820484.147 -7713301.103 10 0 60448 69300.00000 0 -13409153.553 18842607.558 -10666062.991 10 0 60448 70200.00000 0 -12745321.445 17493680.555 -13410642.260 10 0 60448 71100.00000 0 -12087640.167 15791068.712 -15893306.895 10 0 60448 72000.00000 0 -11490524.525 13764965.193 -18065409.481 10 0 60448 72900.00000 0 -11002760.344 11457352.908 -19884364.789 10 0 60448 73800.00000 0 -10665305.697 8920473.711 -21314506.824 10 0 60448 74700.00000 0 -10509440.752 6214868.273 -22327806.508 10 0 60448 75600.00000 0 -10555346.908 3407069.017 -22904434.359 10 0 60448 76500.00000 0 -10811177.193 567043.752 -23033156.047 10 0 60448 77400.00000 0 -11272658.284 -2234501.560 -22711552.518 10 0 60448 78300.00000 0 -11923241.242 -4928846.435 -21946060.424 10 0 60448 79200.00000 0 -12734793.970 -7451890.581 -20751832.624 10 0 60448 80100.00000 0 -13668804.795 -9746588.469 -19152422.519 10 0 60448 81000.00000 0 -14678044.371 -11765081.664 -17179299.922 10 0 60448 81900.00000 0 -15708613.427 -13470440.264 -14871209.666 10 0 60448 82800.00000 0 -16702287.443 -14837942.037 -12273387.581 10 0 60448 83700.00000 0 -17599057.002 -15855838.116 -9436651.265 10 0 60448 84600.00000 0 -18339754.734 -16525576.351 -6416385.518 10 0 60448 85500.00000 0 -18868656.733 -16861476.709 -3271444.219 10 0 60449 0.00000 0 -19135948.220 -16889876.431 -62991.998 10 0 60449 900.00000 0 -19099949.867 -16647784.795 3146692.258 10 0 60449 1800.00000 0 -18729011.756 -16181107.658 6295421.732 10 0 60449 2700.00000 0 -18002997.373 -15542519.365 9322300.084 10 0 60449 3600.00000 0 -16914296.871 -14789073.357 12168885.014 10 0 60449 4500.00000 0 -15468329.344 -13979652.891 14780297.307 10 0 60449 5400.00000 0 -13683514.954 -13172368.773 17106255.498 10 0 60449 6300.00000 0 -11590719.427 -12422012.206 19102018.420 10 0 60449 7200.00000 0 -9232194.774 -11777667.682 20729219.980 10 0 60449 8100.00000 0 -6660060.100 -11280583.582 21956582.725 10 0 60449 9000.00000 0 -3934384.439 -10962387.149 22760498.965 10 0 60449 9900.00000 0 -1120949.138 -10843716.238 23125470.358 10 0 60449 10800.00000 0 1711220.305 -10933323.362 23044399.109 10 0 60449 11700.00000 0 4492454.082 -11227688.555 22518726.012 10 0 60449 12600.00000 0 7155065.416 -11711157.300 21558412.741 10 0 60449 13500.00000 0 9635900.047 -12356598.763 20181767.952 10 0 60449 14400.00000 0 11878705.156 -13126558.684 18415118.981 10 0 60449 15300.00000 0 13836221.661 -13974861.243 16292333.289 10 0 60449 16200.00000 0 15471914.316 -14848595.642 13854196.220 10 0 60449 17100.00000 0 16761267.921 -15690406.972 11147654.196 10 0 60449 18000.00000 0 17692594.997 -16440997.602 8224935.159 10 0 60449 18900.00000 0 18267319.752 -17041735.675 5142560.698 10 0 60449 19800.00000 0 18499724.513 -17437261.659 1960266.916 10 0 60449 20700.00000 0 18416167.054 -17577982.745 -1260146.385 10 0 60449 21600.00000 0 18053799.638 -17422348.397 -4456016.506 10 0 60449 22500.00000 0 17458842.010 -16938808.496 -7565045.107 10 0 60449 23400.00000 0 16684480.154 -16107368.123 -10526527.055 10 0 60449 24300.00000 0 15788479.287 -14920669.560 -13282555.334 10 0 60449 25200.00000 0 14830612.624 -13384551.940 -15779176.458 10 0 60449 26100.00000 0 13870016.065 -11518061.292 -17967471.408 10 0 60449 27000.00000 0 12962582.756 -9352907.443 -19804538.547 10 0 60449 27900.00000 0 12158510.208 -6932388.301 -21254356.985 10 0 60449 28800.00000 0 11500106.262 -4309825.343 -22288511.386 10 0 60449 29700.00000 0 11019949.049 -1546575.544 -22886762.465 10 0 60449 30600.00000 0 10739480.603 1290296.528 -23037450.845 10 0 60449 31500.00000 0 10668094.765 4130587.848 -22737725.826 10 0 60449 32400.00000 0 10802758.305 6903658.350 -21993594.557 10 0 60449 33300.00000 0 11128180.727 9541150.104 -20819791.219 10 0 60449 34200.00000 0 11617524.306 11979609.214 -19239469.780 10 0 60449 35100.00000 0 12233622.309 14162900.007 -17283727.813 10 0 60449 36000.00000 0 12930651.465 16044310.501 -14990972.452 10 0 60449 36900.00000 0 13656185.268 17588261.836 -12406142.935 10 0 60449 37800.00000 0 14353538.662 18771551.858 -9579807.035 10 0 60449 38700.00000 0 14964302.682 19584083.369 -6567151.167 10 0 60449 39600.00000 0 15430960.095 20029049.814 -3426885.842 10 0 60449 40500.00000 0 15699470.469 20122574.398 -220089.515 10 0 60449 41400.00000 0 15721715.225 19892821.718 2990985.460 10 0 60449 42300.00000 0 15457700.022 19378622.945 6144120.730 10 0 60449 43200.00000 0 14877422.835 18627675.519 9178330.210 10 0 60449 44100.00000 0 13962330.831 17694395.397 12035025.988 10 0 60449 45000.00000 0 12706306.712 16637513.476 14659130.495 10 0 60449 45900.00000 0 11116145.095 15517517.381 17000115.193 10 0 60449 46800.00000 0 9211500.459 14394045.203 19012948.007 10 0 60449 47700.00000 0 7024309.790 13323338.758 20658933.709 10 0 60449 48600.00000 0 4597714.077 12355860.718 21906433.711 10 0 60449 49500.00000 0 1984522.702 11534172.597 22731453.924 10 0 60449 50400.00000 0 -754717.237 10891159.684 23118091.479 10 0 60449 51300.00000 0 -3553969.144 10448674.752 23058833.341 10 0 60449 52200.00000 0 -6344182.749 10216655.525 22554701.968 10 0 60449 53100.00000 0 -9055898.473 10192751.958 21615245.272 10 0 60449 54000.00000 0 -11621876.044 10362479.052 20258370.374 10 0 60449 54900.00000 0 -13979641.659 10699889.914 18510022.805 10 0 60449 55800.00000 0 -16073850.646 11168742.787 16403715.189 10 0 60449 56700.00000 0 -17858369.231 11724115.600 13979911.854 10 0 60449 57600.00000 0 -19297989.610 12314402.976 11285278.352 10 0 60449 58500.00000 0 -20369706.541 12883614.335 8371807.578 10 0 60449 59400.00000 0 -21063500.994 13373878.414 5295836.787 10 0 60449 60300.00000 0 -21382596.180 13728049.940 2116972.414 10 0 60449 61200.00000 0 -21343172.903 13892308.696 -1103057.788 10 0 60449 62100.00000 0 -20973553.799 13818640.363 -4301603.748 10 0 60449 63000.00000 0 -20312888.628 13467092.328 -7416319.691 10 0 60449 63900.00000 0 -19409394.399 12807706.224 -10386393.584 10 0 60449 64800.00000 0 -18318223.674 11822041.969 -13153753.872 10 0 60449 65700.00000 0 -17099051.038 10504225.007 -15664227.915 10 0 60449 66600.00000 0 -15813480.512 8861468.680 -17868627.134 10 0 60449 67500.00000 0 -14522384.987 6914046.163 -19723735.203 10 0 60449 68400.00000 0 -13283292.194 4694710.281 -21193177.678 10 0 60449 69300.00000 0 -12147929.957 2247583.593 -22248153.914 10 0 60449 70200.00000 0 -11160036.684 -373435.700 -22868015.362 10 0 60449 71100.00000 0 -10353531.475 -3106685.325 -23040677.741 10 0 60449 72000.00000 0 -9751122.436 -5885082.987 -22762858.433 10 0 60449 72900.00000 0 -9363412.455 -8638703.552 -22040134.427 10 0 60449 73800.00000 0 -9188539.858 -11297480.019 -20886820.195 10 0 60449 74700.00000 0 -9212367.880 -13793913.727 -19325668.884 10 0 60449 75600.00000 0 -9409212.952 -16065679.291 -17387404.142 10 0 60449 76500.00000 0 -9743078.402 -18058014.653 -15110093.469 10 0 60449 77400.00000 0 -10169338.492 -19725796.372 -12538377.382 10 0 60449 78300.00000 0 -10636798.526 -21035214.320 -9722571.601 10 0 60449 79200.00000 0 -11090041.089 -21964977.539 -6717661.862 10 0 60449 80100.00000 0 -11471956.786 -22507003.457 -3582213.014 10 0 60449 81000.00000 0 -11726350.764 -22666564.872 -377215.334 10 0 60449 81900.00000 0 -11800513.932 -22461892.242 2835108.200 10 0 60449 82800.00000 0 -11647650.172 -21923251.638 5992509.688 10 0 60449 83700.00000 0 -11229057.862 -21091540.458 9033915.556 10 0 60449 84600.00000 0 -10515975.068 -20016462.585 11900594.543 10 0 60449 85500.00000 0 -9491012.539 -18754361.406 14537272.931 10 0 60450 0.00000 0 -8149116.316 -17365802.523 16893177.041 10 0 60450 900.00000 0 -6498020.457 -15913006.394 18922986.295 10 0 60450 1800.00000 0 -4558174.047 -14457238.990 20587677.873 10 0 60450 2700.00000 0 -2362143.581 -13056265.010 21855253.556 10 0 60450 3600.00000 0 46483.056 -11761969.228 22701334.050 10 0 60450 4500.00000 0 2614647.441 -10618241.689 23109612.820 10 0 60450 5400.00000 0 5281764.033 -9659212.355 23072162.118 10 0 60450 6300.00000 0 7981978.513 -8907906.548 22589586.244 10 0 60450 7200.00000 0 10646650.870 -8375375.697 21671019.213 10 0 60450 8100.00000 0 13206963.917 -8060339.006 20333966.163 10 0 60450 9000.00000 0 15596552.554 -7949351.270 18603990.070 10 0 60450 9900.00000 0 17754047.584 -8017491.000 16514247.671 10 0 60450 10800.00000 0 19625430.595 -8229541.924 14104880.908 10 0 60450 11700.00000 0 21166103.117 -8541620.639 11422272.772 10 0 60450 12600.00000 0 22342583.951 -8903184.478 8518179.085 10 0 60450 13500.00000 0 23133762.921 -9259337.252 5448750.400 10 0 60450 14400.00000 0 23531656.892 -9553337.311 2273460.835 10 0 60450 15300.00000 0 23541633.985 -9729202.778 -946036.800 10 0 60450 16200.00000 0 23182093.997 -9734303.595 -4147108.085 10 0 60450 17100.00000 0 22483615.880 -9521829.400 -7267362.871 10 0 60450 18000.00000 0 21487606.004 -9053026.450 -10245885.211 10 0 60450 18900.00000 0 20244502.644 -8299105.774 -13024441.829 10 0 60450 19800.00000 0 18811611.687 -7242738.131 -15548643.534 10 0 60450 20700.00000 0 17250665.062 -5879068.690 -17769034.525 10 0 60450 21600.00000 0 15625205.891 -4216204.831 -19642085.845 10 0 60450 22500.00000 0 13997912.324 -2275153.213 -21131071.258 10 0 60450 23400.00000 0 12427975.049 -89206.223 -22206806.272 10 0 60450 24300.00000 0 10968641.180 2297198.026 -22848234.203 10 0 60450 25200.00000 0 9665030.092 4830095.019 -23042846.650 10 0 60450 26100.00000 0 8552314.711 7448024.294 -22786929.505 10 0 60450 27000.00000 0 7654345.700 10084385.076 -22085629.652 10 0 60450 27900.00000 0 6982776.394 12670017.012 -20952841.531 10 0 60450 28800.00000 0 6536724.360 15135896.359 -19410916.783 10 0 60450 29700.00000 0 6302981.949 17415833.285 -17490204.074 10 0 60450 30600.00000 0 6256764.333 19449056.288 -15228429.851 10 0 60450 31500.00000 0 6362960.288 21182575.034 -12669934.146 10 0 60450 32400.00000 0 6577829.515 22573222.996 -9864778.505 10 0 60450 33300.00000 0 6851071.451 23589295.496 -6867745.558 10 0 60450 34200.00000 0 7128175.105 24211716.553 -3737251.780 10 0 60450 35100.00000 0 7352948.198 24434688.343 -534196.348 10 0 60450 36000.00000 0 7470117.074 24265799.341 2679230.206 10 0 60450 36900.00000 0 7427886.771 23725590.083 5840753.545 10 0 60450 37800.00000 0 7180353.320 22846598.124 8889215.685 10 0 60450 38700.00000 0 6689667.408 21671925.214 11765744.974 10 0 60450 39600.00000 0 5927859.741 20253388.931 14414874.348 10 0 60450 40500.00000 0 4878253.165 18649337.474 16785587.962 10 0 60450 41400.00000 0 3536404.008 16922219.243 18832278.229 10 0 60450 42300.00000 0 1910534.698 15136008.006 20515597.268 10 0 60450 43200.00000 0 21440.446 13353589.349 21803189.021 10 0 60450 44100.00000 0 -2098126.092 11634214.969 22670290.455 10 0 60450 45000.00000 0 -4404567.349 10031127.987 23100192.455 10 0 60450 45900.00000 0 -6845006.141 8589455.190 23084553.221 10 0 60450 46800.00000 0 -9359241.323 7344451.218 22623559.080 10 0 60450 47700.00000 0 -11882015.861 6320165.620 21725929.799 10 0 60450 48600.00000 0 -14345506.774 5528586.914 20408767.628 10 0 60450 49500.00000 0 -16681937.202 4969298.819 18697251.516 10 0 60450 50400.00000 0 -18826205.330 4629663.468 16624180.301 10 0 60450 51300.00000 0 -20718423.414 4485525.184 14229371.056 10 0 60450 52200.00000 0 -22306262.906 4502407.211 11558921.334 10 0 60450 53100.00000 0 -23547008.444 4637153.360 8664346.724 10 0 60450 54000.00000 0 -24409234.425 4839947.707 5601607.760 10 0 60450 54900.00000 0 -24874032.549 5056629.076 2430042.868 10 0 60450 55800.00000 0 -24935736.593 5231203.762 -788773.434 10 0 60450 56700.00000 0 -24602111.222 5308450.568 -3992225.621 10 0 60450 57600.00000 0 -23893994.058 5236507.187 -7117882.277 10 0 60450 58500.00000 0 -22844403.318 4969326.640 -10104726.473 10 0 60450 59400.00000 0 -21497146.510 4468897.077 -12894365.929 10 0 60450 60300.00000 0 -19904987.348 3707127.609 -15432197.358 10 0 60450 61200.00000 0 -18127447.650 2667316.601 -17668499.848 10 0 60450 62100.00000 0 -16228337.229 1345136.597 -19559433.534 10 0 60450 63000.00000 0 -14273116.936 -250909.236 -21067921.641 10 0 60450 63900.00000 0 -12326207.689 -2099581.305 -22164396.569 10 0 60450 64800.00000 0 -10448360.753 -4167546.576 -22827393.716 10 0 60450 65700.00000 0 -8694201.899 -6410544.537 -23043980.256 10 0 60450 66600.00000 0 -7110054.440 -8775027.398 -22810009.799 10 0 60450 67500.00000 0 -5732133.733 -11200205.176 -22130197.881 10 0 60450 68400.00000 0 -4585189.312 -13620408.688 -21018017.297 10 0 60450 69300.00000 0 -3681651.101 -15967669.846 -19495416.235 10 0 60450 70200.00000 0 -3021313.998 -18174409.416 -17592366.193 10 0 60450 71100.00000 0 -2591571.612 -20176118.191 -15346250.197 10 0 60450 72000.00000 0 -2368186.154 -21913918.162 -12801105.332 10 0 60450 72900.00000 0 -2316558.443 -23336896.018 -10006736.483 10 0 60450 73800.00000 0 -2393440.698 -24404111.633 -7017720.715 10 0 60450 74700.00000 0 -2549016.312 -25086198.605 -3892323.755 10 0 60450 75600.00000 0 -2729255.690 -25366491.851 -691351.406 10 0 60450 76500.00000 0 -2878446.313 -25241637.691 2523040.403 10 0 60450 77400.00000 0 -2941788.679 -24721663.958 5688552.968 10 0 60450 78300.00000 0 -2867948.013 -23829510.427 8743945.873 10 0 60450 79200.00000 0 -2611454.456 -22600042.206 11630208.983 10 0 60450 80100.00000 0 -2134851.697 -21078589.858 14291683.698 10 0 60450 81000.00000 0 -1410505.256 -19319078.974 16677113.519 10 0 60450 81900.00000 0 -421996.253 -17381828.012 18740605.832 10 0 60450 82800.00000 0 834956.058 -15331105.954 20442488.833 10 0 60450 83700.00000 0 2352080.339 -13232550.246 21750049.749 10 0 60450 84600.00000 0 4108664.522 -11150550.277 22638142.662 10 0 60450 85500.00000 0 6072188.091 -9145702.507 23089656.445 99